EJA1 TBPB-TAPA

Flight info

Callsign EJA1
Flight time 0h 49m
Altitude 36000
Route BGI UA632 ANU
Aircraft B738/M-SDE2E3FGHIRWXY/LB1

Departure

Time 2026-05-04 23:09
Airport Grantley Adams International Airport (TBPB)

Arrival

Time 2026-05-04 23:59
Airport V. C. Bird International Airport (TAPA)
Time Latitude Longitude Altitude Speed Heading
2026-05-04 22:54 13.07916 -59.48625 171 ft 0 kts 345°
2026-05-04 22:59 13.07915 -59.48625 171 ft 2 kts 345°
2026-05-04 23:00 13.07890 -59.48618 171 ft 4 kts 345°
2026-05-04 23:00 13.07870 -59.48613 170 ft 4 kts 343°
2026-05-04 23:00 13.07844 -59.48603 170 ft 4 kts 332°
2026-05-04 23:00 13.07823 -59.48587 170 ft 4 kts 301°
2026-05-04 23:01 13.07820 -59.48566 170 ft 4 kts 255°
2026-05-04 23:01 13.07825 -59.48546 170 ft 0 kts 255°
2026-05-04 23:03 13.07824 -59.48551 170 ft 4 kts 255°
2026-05-04 23:03 13.07805 -59.48621 170 ft 14 kts 256°
2026-05-04 23:03 13.07780 -59.48721 171 ft 15 kts 251°
2026-05-04 23:04 13.07732 -59.48811 171 ft 14 kts 250°
2026-05-04 23:04 13.07706 -59.48906 172 ft 13 kts 256°
2026-05-04 23:04 13.07682 -59.48997 172 ft 13 kts 255°
2026-05-04 23:04 13.07661 -59.49086 172 ft 13 kts 256°
2026-05-04 23:05 13.07640 -59.49172 173 ft 12 kts 255°
2026-05-04 23:05 13.07619 -59.49256 173 ft 12 kts 256°
2026-05-04 23:05 13.07599 -59.49338 173 ft 12 kts 255°
2026-05-04 23:05 13.07577 -59.49421 173 ft 12 kts 255°
2026-05-04 23:06 13.07556 -59.49509 173 ft 13 kts 257°
2026-05-04 23:06 13.07535 -59.49597 174 ft 13 kts 256°
2026-05-04 23:06 13.07514 -59.49684 174 ft 12 kts 256°
2026-05-04 23:06 13.07493 -59.49769 174 ft 13 kts 256°
2026-05-04 23:07 13.07472 -59.49860 174 ft 13 kts 257°
2026-05-04 23:07 13.07451 -59.49948 175 ft 13 kts 256°
2026-05-04 23:07 13.07430 -59.50032 175 ft 12 kts 256°
2026-05-04 23:07 13.07410 -59.50116 175 ft 12 kts 256°
2026-05-04 23:08 13.07386 -59.50192 175 ft 6 kts 239°
2026-05-04 23:08 13.07347 -59.50202 176 ft 6 kts 170°
2026-05-04 23:08 13.07302 -59.50191 176 ft 8 kts 165°
2026-05-04 23:08 13.07258 -59.50126 177 ft 17 kts 100°
2026-05-04 23:09 13.07285 -59.49952 177 ft 34 kts 76°
2026-05-04 23:09 13.07404 -59.49450 173 ft 116 kts 75°
2026-05-04 23:09 13.07676 -59.48404 356 ft 175 kts 76°
2026-05-04 23:09 13.07963 -59.47339 1846 ft 134 kts 76°
2026-05-04 23:10 13.08142 -59.46439 2917 ft 128 kts 81°
2026-05-04 23:10 13.08254 -59.45464 3472 ft 152 kts 83°
2026-05-04 23:10 13.08377 -59.44340 4243 ft 158 kts 81°
2026-05-04 23:10 13.08612 -59.43292 5336 ft 147 kts 70°
2026-05-04 23:11 13.09273 -59.42392 5885 ft 178 kts 39°
2026-05-04 23:11 13.10526 -59.41956 6365 ft 210 kts
2026-05-04 23:11 13.12025 -59.42150 6938 ft 225 kts 347°
2026-05-04 23:11 13.13473 -59.42784 7664 ft 228 kts 334°
2026-05-04 23:12 13.14828 -59.43614 8526 ft 224 kts 332°
2026-05-04 23:12 13.16212 -59.44443 9109 ft 237 kts 334°
2026-05-04 23:12 13.17703 -59.45296 9536 ft 258 kts 334°
2026-05-04 23:12 13.19372 -59.46249 9774 ft 291 kts 332°
2026-05-04 23:13 13.21171 -59.47365 10276 ft 309 kts 330°
2026-05-04 23:13 13.23073 -59.48573 10483 ft 339 kts 330°
2026-05-04 23:13 13.25149 -59.49894 10667 ft 364 kts 330°
2026-05-04 23:13 13.27377 -59.51304 10938 ft 383 kts 330°
2026-05-04 23:14 13.29673 -59.52750 11534 ft 389 kts 330°
2026-05-04 23:14 13.32007 -59.54213 12269 ft 391 kts 330°
2026-05-04 23:14 13.34336 -59.55668 13001 ft 394 kts 330°
2026-05-04 23:14 13.36664 -59.57117 13640 ft 398 kts 330°
2026-05-04 23:15 13.39039 -59.58593 14229 ft 401 kts 330°
2026-05-04 23:15 13.41437 -59.60082 14836 ft 403 kts 330°
2026-05-04 23:15 13.43843 -59.61575 15468 ft 405 kts 330°
2026-05-04 23:15 13.46263 -59.63077 16064 ft 407 kts 330°
2026-05-04 23:16 13.48697 -59.64588 16661 ft 409 kts 330°
2026-05-04 23:16 13.51149 -59.66110 17241 ft 412 kts 330°
2026-05-04 23:16 13.53607 -59.67637 17816 ft 414 kts 330°
2026-05-04 23:16 13.56053 -59.69156 18368 ft 416 kts 330°
2026-05-04 23:17 13.58541 -59.70702 18832 ft 419 kts 330°
2026-05-04 23:17 13.61045 -59.72257 19278 ft 422 kts 330°
2026-05-04 23:17 13.63571 -59.73827 19741 ft 424 kts 329°
2026-05-04 23:17 13.66105 -59.75404 20201 ft 427 kts 330°
2026-05-04 23:18 13.68659 -59.76993 20625 ft 430 kts 330°
2026-05-04 23:18 13.71234 -59.78596 21030 ft 433 kts 330°
2026-05-04 23:18 13.73793 -59.80187 21455 ft 436 kts 330°
2026-05-04 23:18 13.76398 -59.81808 21865 ft 438 kts 330°
2026-05-04 23:19 13.79023 -59.83442 22276 ft 441 kts 330°
2026-05-04 23:19 13.81650 -59.85080 22683 ft 443 kts 330°
2026-05-04 23:19 13.84299 -59.86730 23073 ft 446 kts 330°
2026-05-04 23:19 13.86958 -59.88387 23435 ft 449 kts 329°
2026-05-04 23:20 13.89636 -59.90055 23781 ft 451 kts 330°
2026-05-04 23:20 13.92322 -59.91729 24110 ft 452 kts 330°
2026-05-04 23:20 13.95017 -59.93409 24452 ft 453 kts 330°
2026-05-04 23:20 13.97716 -59.95092 24788 ft 454 kts 329°
2026-05-04 23:21 14.00422 -59.96781 25082 ft 456 kts 330°
2026-05-04 23:21 14.03138 -59.98477 25372 ft 458 kts 329°
2026-05-04 23:21 14.05866 -60.00181 25708 ft 458 kts 329°
2026-05-04 23:21 14.08604 -60.01890 25975 ft 460 kts 329°
2026-05-04 23:22 14.11340 -60.03600 26257 ft 462 kts 329°
2026-05-04 23:22 14.14062 -60.05300 26538 ft 463 kts 329°
2026-05-04 23:22 14.16862 -60.07050 26820 ft 465 kts 329°
2026-05-04 23:22 14.19631 -60.08781 27095 ft 466 kts 329°
2026-05-04 23:23 14.22409 -60.10518 27341 ft 468 kts 329°
2026-05-04 23:23 14.25198 -60.12264 27564 ft 470 kts 329°
2026-05-04 23:23 14.27993 -60.14013 27883 ft 470 kts 329°
2026-05-04 23:23 14.30792 -60.15765 28077 ft 472 kts 329°
2026-05-04 23:24 14.33566 -60.17502 28333 ft 473 kts 329°
2026-05-04 23:24 14.36420 -60.19289 28537 ft 475 kts 329°
2026-05-04 23:24 14.39214 -60.21039 28738 ft 476 kts 329°
2026-05-04 23:24 14.42035 -60.22808 29089 ft 474 kts 329°
2026-05-04 23:25 14.44852 -60.24574 29399 ft 473 kts 329°
2026-05-04 23:25 14.47669 -60.26341 29738 ft 473 kts 329°
2026-05-04 23:25 14.50483 -60.28106 30060 ft 472 kts 329°
2026-05-04 23:25 14.53331 -60.29893 30347 ft 471 kts 329°
2026-05-04 23:26 14.56131 -60.31650 30643 ft 470 kts 329°
2026-05-04 23:26 14.58894 -60.33385 30915 ft 470 kts 329°
2026-05-04 23:26 14.61690 -60.35142 31222 ft 469 kts 329°
2026-05-04 23:26 14.64483 -60.36896 31509 ft 468 kts 329°
2026-05-04 23:27 14.67281 -60.38631 31823 ft 467 kts 330°
2026-05-04 23:27 14.70106 -60.40280 32148 ft 466 kts 332°
2026-05-04 23:27 14.72951 -60.41884 32463 ft 465 kts 332°
2026-05-04 23:27 14.75793 -60.43469 32794 ft 464 kts 332°
2026-05-04 23:28 14.78597 -60.45034 33122 ft 463 kts 332°
2026-05-04 23:28 14.81417 -60.46616 33485 ft 461 kts 332°
2026-05-04 23:28 14.84238 -60.48209 33862 ft 460 kts 332°
2026-05-04 23:28 14.87035 -60.49796 34190 ft 458 kts 332°
2026-05-04 23:29 14.89828 -60.51385 34482 ft 458 kts 332°
2026-05-04 23:29 14.92623 -60.52978 34772 ft 457 kts 332°
2026-05-04 23:29 14.95414 -60.54571 35065 ft 456 kts 332°
2026-05-04 23:29 14.98194 -60.56159 35349 ft 456 kts 332°
2026-05-04 23:30 15.00939 -60.57726 35614 ft 455 kts 332°
2026-05-04 23:30 15.03715 -60.59311 35901 ft 454 kts 332°
2026-05-04 23:30 15.06491 -60.60897 36050 ft 456 kts 332°
2026-05-04 23:30 15.09268 -60.62482 36043 ft 457 kts 332°
2026-05-04 23:31 15.14792 -60.65639 36042 ft 454 kts 332°
2026-05-04 23:31 15.20314 -60.68797 36047 ft 452 kts 332°
2026-05-04 23:32 15.25808 -60.71940 36049 ft 451 kts 332°
2026-05-04 23:32 15.31304 -60.75086 36049 ft 450 kts 332°
2026-05-04 23:33 15.35868 -60.77700 36048 ft 450 kts 332°
2026-05-04 23:33 15.41343 -60.80838 36054 ft 451 kts 332°
2026-05-04 23:34 15.46853 -60.83998 36054 ft 452 kts 332°
2026-05-04 23:34 15.52363 -60.87160 36057 ft 453 kts 332°
2026-05-04 23:35 15.57848 -60.90309 36055 ft 453 kts 332°
2026-05-04 23:35 15.63385 -60.93490 36055 ft 454 kts 332°
2026-05-04 23:36 15.68914 -60.96669 36056 ft 454 kts 332°
2026-05-04 23:36 15.74437 -60.99846 36058 ft 454 kts 332°
2026-05-04 23:37 15.79967 -61.03029 36055 ft 454 kts 332°
2026-05-04 23:37 15.85496 -61.06213 36060 ft 454 kts 332°
2026-05-04 23:38 15.90983 -61.09376 36060 ft 454 kts 332°
2026-05-04 23:38 15.96509 -61.12563 36057 ft 454 kts 332°
2026-05-04 23:39 16.01972 -61.15715 36058 ft 453 kts 332°
2026-05-04 23:39 16.04735 -61.17311 35855 ft 456 kts 332°
2026-05-04 23:39 16.07531 -61.18925 35215 ft 458 kts 332°
2026-05-04 23:40 16.10314 -61.20533 34451 ft 458 kts 332°
2026-05-04 23:40 16.13111 -61.22149 33583 ft 460 kts 332°
2026-05-04 23:40 16.15869 -61.23743 32692 ft 462 kts 332°
2026-05-04 23:40 16.18688 -61.25373 31758 ft 465 kts 332°
2026-05-04 23:41 16.21529 -61.27017 30854 ft 467 kts 332°
2026-05-04 23:41 16.24380 -61.28667 29857 ft 470 kts 332°
2026-05-04 23:41 16.27245 -61.30325 28722 ft 473 kts 332°
2026-05-04 23:41 16.30139 -61.32000 27608 ft 475 kts 332°
2026-05-04 23:42 16.33034 -61.33678 26440 ft 478 kts 332°
2026-05-04 23:42 16.35958 -61.35372 25487 ft 478 kts 332°
2026-05-04 23:42 16.38834 -61.37040 24321 ft 470 kts 332°
2026-05-04 23:42 16.41680 -61.38691 23073 ft 465 kts 332°
2026-05-04 23:43 16.44440 -61.40311 21770 ft 458 kts 330°
2026-05-04 23:43 16.46989 -61.42257 20522 ft 452 kts 319°
2026-05-04 23:43 16.49266 -61.44464 19448 ft 441 kts 318°
2026-05-04 23:43 16.51467 -61.46609 18467 ft 428 kts 318°
2026-05-04 23:44 16.53650 -61.48726 17390 ft 415 kts 318°
2026-05-04 23:44 16.55709 -61.50708 16700 ft 398 kts 318°
2026-05-04 23:44 16.57690 -61.52606 16391 ft 374 kts 318°
2026-05-04 23:44 16.59557 -61.54390 16033 ft 355 kts 318°
2026-05-04 23:45 16.61356 -61.56105 15582 ft 343 kts 318°
2026-05-04 23:45 16.63077 -61.57746 15346 ft 327 kts 318°
2026-05-04 23:45 16.64726 -61.59317 15008 ft 316 kts 318°
2026-05-04 23:45 16.66328 -61.60845 14613 ft 309 kts 317°
2026-05-04 23:46 16.67610 -61.62615 14094 ft 308 kts 294°
2026-05-04 23:46 16.68151 -61.64769 13528 ft 307 kts 277°
2026-05-04 23:46 16.68398 -61.66979 13013 ft 304 kts 275°
2026-05-04 23:46 16.68604 -61.69164 12485 ft 302 kts 275°
2026-05-04 23:47 16.68803 -61.71345 11969 ft 301 kts 275°
2026-05-04 23:47 16.68997 -61.73503 11518 ft 297 kts 275°
2026-05-04 23:47 16.69189 -61.75647 11001 ft 296 kts 275°
2026-05-04 23:47 16.69377 -61.77751 10555 ft 293 kts 275°
2026-05-04 23:48 16.69567 -61.79859 10080 ft 291 kts 275°
2026-05-04 23:48 16.69756 -61.81951 9617 ft 287 kts 275°
2026-05-04 23:48 16.69949 -61.84046 8993 ft 291 kts 275°
2026-05-04 23:48 16.70148 -61.86141 8484 ft 290 kts 275°
2026-05-04 23:49 16.70354 -61.88230 7977 ft 289 kts 275°
2026-05-04 23:49 16.70647 -61.90307 7427 ft 290 kts 280°
2026-05-04 23:49 16.71168 -61.92326 7010 ft 287 kts 293°
2026-05-04 23:49 16.72116 -61.94095 6702 ft 281 kts 313°
2026-05-04 23:50 16.73758 -61.95165 6396 ft 275 kts 349°
2026-05-04 23:50 16.75623 -61.95225 6133 ft 268 kts
2026-05-04 23:50 16.77497 -61.95208 5801 ft 270 kts
2026-05-04 23:50 16.79379 -61.95256 5486 ft 270 kts
2026-05-04 23:51 16.81263 -61.95327 5159 ft 271 kts
2026-05-04 23:51 16.83149 -61.95409 4838 ft 270 kts
2026-05-04 23:51 16.85031 -61.95496 4528 ft 269 kts
2026-05-04 23:51 16.86902 -61.95586 4209 ft 268 kts 360°
2026-05-04 23:52 16.88761 -61.95677 3906 ft 267 kts
2026-05-04 23:52 16.90612 -61.95769 3603 ft 266 kts
2026-05-04 23:52 16.92457 -61.95860 3320 ft 264 kts
2026-05-04 23:52 16.94266 -61.95951 3143 ft 257 kts
2026-05-04 23:53 16.96020 -61.96039 3020 ft 248 kts
2026-05-04 23:53 16.97719 -61.96125 2913 ft 240 kts
2026-05-04 23:53 16.99364 -61.96208 2803 ft 233 kts
2026-05-04 23:53 17.00957 -61.96289 2712 ft 226 kts
2026-05-04 23:54 17.02486 -61.96318 2558 ft 218 kts 13°
2026-05-04 23:54 17.03782 -61.95679 2499 ft 200 kts 45°
2026-05-04 23:54 17.04640 -61.94558 2390 ft 196 kts 63°
2026-05-04 23:54 17.05338 -61.93348 2310 ft 191 kts 62°
2026-05-04 23:55 17.06022 -61.92200 2229 ft 179 kts 62°
2026-05-04 23:55 17.06659 -61.91129 2132 ft 170 kts 63°
2026-05-04 23:55 17.07899 -61.89028 1949 ft 172 kts 63°
2026-05-04 23:56 17.08508 -61.88000 1805 ft 162 kts 63°
2026-05-04 23:56 17.09083 -61.87027 1600 ft 153 kts 62°
2026-05-04 23:56 17.09622 -61.86117 1399 ft 141 kts 62°
2026-05-04 23:56 17.10136 -61.85224 1158 ft 149 kts 63°
2026-05-04 23:57 17.10677 -61.84324 996 ft 142 kts 61°
2026-05-04 23:57 17.11189 -61.83465 847 ft 138 kts 60°
2026-05-04 23:57 17.11695 -61.82608 626 ft 138 kts 63°
2026-05-04 23:57 17.12218 -61.81727 451 ft 146 kts 63°
2026-05-04 23:58 17.12755 -61.80806 242 ft 151 kts 61°
2026-05-04 23:58 17.13303 -61.79890 85 ft 144 kts 61°
2026-05-04 23:58 17.13778 -61.79080 44 ft 112 kts 54°
2026-05-04 23:58 17.14082 -61.78583 37 ft 50 kts 58°
2026-05-04 23:59 17.14186 -61.78411 35 ft 28 kts 58°
2026-05-04 23:59 17.14268 -61.78262 33 ft 13 kts 43°
2026-05-04 23:59 17.14340 -61.78207 32 ft 13 kts 75°
2026-05-04 23:59 17.14309 -61.78166 32 ft 6 kts 202°
2026-05-05 00:00 17.14292 -61.78204 33 ft 6 kts 252°
2026-05-05 00:00 17.14288 -61.78218 33 ft 6 kts 252°
2026-05-05 00:00 17.14245 -61.78312 34 ft 14 kts 235°
2026-05-05 00:00 17.14175 -61.78418 35 ft 20 kts 237°
2026-05-05 00:01 17.14102 -61.78548 37 ft 20 kts 246°
2026-05-05 00:01 17.14100 -61.78682 37 ft 18 kts 276°
2026-05-05 00:01 17.14111 -61.78812 40 ft 18 kts 268°
2026-05-05 00:01 17.14082 -61.78915 40 ft 7 kts 261°
2026-05-05 00:02 17.14088 -61.78934 42 ft 3 kts 296°
2026-05-05 00:02 17.14106 -61.78956 42 ft 6 kts 313°
2026-05-05 00:02 17.14129 -61.78970 42 ft 4 kts 337°
2026-05-05 00:02 17.14145 -61.78980 42 ft 0 kts 329°